Weather History for Pensacola NAS, FL

Change the Weather History Date:

Thursday, September 26, 2013

  Actual Average Record
Temperature  
Mean Temperature 76 °F -  
Max Temperature 86 °F 82 °F 91 °F (1998)
Min Temperature 68 °F 65 °F 50 °F (2001)
Cooling Degree Days 11    
Growing Degree Days 26 (Base 50)    
Moisture  
Dew Point 70 °F    
Average Humidity 83    
Maximum Humidity 100    
Minimum Humidity 61    
Precipitation  
Precipitation 0.00 in - - ()
Sea Level Pressure  
Sea Level Pressure 29.89 in    
Wind  
Wind Speed 3 mph (ENE)    
Max Wind Speed 10 mph    
Max Gust Speed -    
Visibility 9 miles    
Events      
Averages and records for this station are not official NWS values.
T = Trace of Precipitation, MM = Missing Value Source: NWS Daily Summary

Daily Weather History Graph

Daily Weather History Graph

Search for Another Location

Airport:

Trip Planner

Search our weather history database for the weather conditions in past years. The results will help you decide how hot, cold, wet, or windy it might be!

Date:

Astronomy

Sep. 26, 2013 Rise Set
Actual Time 6:40 AM CDT 6:40 PM CDT
Civil Twilight 6:16 AM CDT 7:04 PM CDT
Nautical Twilight 5:48 AM CDT 7:32 PM CDT
Astronomical Twilight 5:20 AM CDT 8:00 PM CDT
Moon 11:58 PM CDT (9/26) 1:11 PM CDT (9/26)
Length of Visible Light 12h 48m
Length of Day
12h 00m
Waning Gibbous, 54% of the Moon is Illuminated
Sep 26
Waning Gibbous
Sep 26
Last Quarter
Oct 4
New
Oct 11
First Quarter
Oct 18
Full

Hourly Weather History & Observations

Time (CDT) Temp. Heat Index Dew Point Humidity Pressure Visibility Wind Dir Wind Speed Gust Speed Precip Events Conditions
12:56 AM 68.0 °F - 68.0 °F 100% 29.82 in 5.0 mi Calm Calm - 0.00 in   Clear
1:56 AM 69.1 °F - 68.0 °F 96% 29.82 in 6.0 mi Calm Calm - 0.00 in   Clear
2:56 AM 68.0 °F - 66.9 °F 96% 29.82 in 8.0 mi NNW 3.5 mph - N/A   Clear
3:07 AM 69.8 °F - 69.8 °F 100% 29.82 in 7.0 mi NNW 3.5 mph - N/A   Partly Cloudy
3:56 AM 70.0 °F - 69.1 °F 97% 29.82 in 8.0 mi NNW 3.5 mph - 0.00 in   Clear
4:56 AM 68.0 °F - 68.0 °F 100% 29.84 in 7.0 mi Calm Calm - N/A   Clear
5:56 AM 68.0 °F - 66.9 °F 96% 29.85 in 10.0 mi North 3.5 mph - N/A   Clear
6:56 AM 68.0 °F - 66.9 °F 96% 29.87 in 10.0 mi Calm Calm - N/A   Partly Cloudy
7:56 AM 73.9 °F - 71.1 °F 91% 29.89 in 10.0 mi Calm Calm - N/A   Partly Cloudy
8:56 AM 78.1 °F - 71.1 °F 79% 29.91 in 10.0 mi NNE 5.8 mph - N/A   Partly Cloudy
9:56 AM 82.0 °F 85.9 °F 70.0 °F 67% 29.92 in 10.0 mi NE 5.8 mph - N/A   Partly Cloudy
10:56 AM 84.0 °F 89.0 °F 71.1 °F 65% 29.92 in 10.0 mi East 5.8 mph - N/A   Partly Cloudy
11:56 AM 82.9 °F 87.0 °F 70.0 °F 65% 29.92 in 10.0 mi Calm Calm - N/A   Scattered Clouds
12:56 PM 84.0 °F 87.8 °F 69.1 °F 61% 29.91 in 10.0 mi SSE 9.2 mph - N/A   Scattered Clouds
1:56 PM 84.0 °F 89.6 °F 72.0 °F 67% 29.88 in 10.0 mi South 9.2 mph - N/A   Scattered Clouds
2:56 PM 82.9 °F 88.0 °F 72.0 °F 69% 29.88 in 10.0 mi South 10.4 mph - N/A   Mostly Cloudy
3:56 PM 82.0 °F 88.6 °F 75.0 °F 79% 29.87 in 10.0 mi South 9.2 mph - N/A   Overcast
4:56 PM 81.0 °F 85.8 °F 73.0 °F 77% 29.88 in 10.0 mi SSE 6.9 mph - N/A   Mostly Cloudy
5:56 PM 80.1 °F 84.2 °F 73.0 °F 79% 29.88 in 10.0 mi Calm Calm - N/A   Mostly Cloudy
6:56 PM 79.0 °F - 73.0 °F 82% 29.90 in 10.0 mi SE 4.6 mph - N/A   Mostly Cloudy
7:56 PM 78.1 °F - 73.0 °F 84% 29.91 in 10.0 mi ENE 3.5 mph - N/A   Mostly Cloudy
8:56 PM 77.0 °F - 70.0 °F 79% 29.94 in 10.0 mi NE 9.2 mph - N/A   Mostly Cloudy
9:56 PM 75.0 °F - 68.0 °F 79% 29.95 in 10.0 mi NE 6.9 mph - N/A   Partly Cloudy
10:56 PM 73.9 °F - 68.0 °F 82% 29.95 in 10.0 mi NE 8.1 mph - N/A   Clear
11:56 PM 73.9 °F - 66.9 °F 79% 29.96 in 10.0 mi ENE 8.1 mph - N/A   Clear